Torna al catalogo

SL-8 R/B

AttivoLEO
NORAD 7426·ROCKET BODY·🇷🇺 Russia

Lanciato Aug 29, 1974 da Plesetsk Cosmodrome

Loading…

Prossimi Passaggi (prossime 24 ore)

TLE

AggiornatoSource: Space-Track

Epoca: Sep 14, 2026, 08:22 UTC

1 07426U 74069B   26257.34909300 -.00000068  00000-0 -26205-3 0  9999
2 07426  74.0576  27.4067 0043665  75.7947 312.9810 12.68867132795413

Traccia SL-8 R/B in tempo reale con AllMySat

Download on the App Store